Current weather by "City, St" or "zip code"  
 
Advertise Here

Current Conditions: Bedford, Bedford County Airport, PA

Mostly Cloudy


65.0 F

Last Updated on Sep 16 2021, 11:50 pm EDT
Humidity: 98%
Wind Speed: N 0.0 mph
Barometer 30.22 in
Dewpoint: 64.8 F
Visibility: 7.00 mi
Precip: --
Heat Index: NA
Wind Chill: NA
Current conditions at:

Bedford, Bedford County Airport, PA (KHMZ)

Lat: 40.08528 Lon: 78.51222

Local Radar Image active severe weather and emergency alerts image image weather storm and storm spotter reports image weather observation monitoring service image
Local
Radar
Active
Alerts
Storm Reports Obs
Monitoring

Sign-up For Email & Text Message Weather Alert Notification Services



Advertise Here

Observation History for Bedford, Bedford County Airport, PA


Time Wind
(mph)
Vis
(mi)
Weather Precip (in) Temperature (F) Relative
Humidity
Wind
Chill
(F)
Heat
Index
(F)
Pressure
Air Dwpt altimeter
(in)
sea level
(mb)
Rmks
11:50 pm EDT N 0.0 7.00 Mostly Cloudy -- 65.0 64.8 98% NA NA 30.22 M
11:30 pm EDT NE 3.5 10.00 Partly Cloudy -- 65.0 64.6 98% NA NA 30.22 M
10:50 pm EDT N 0.0 10.00 Partly Cloudy -- 68.0 66.9 98% NA NA 30.21 M
9:50 pm EDT N 0.0 10.00 Overcast -- 68.0 67.1 97% NA NA 30.22 M
8:50 pm EDT N 0.0 10.00 Overcast -- 69.0 68.0 98% NA NA 30.21 M
8:30 pm EDT N 0.0 10.00 Overcast -- 69.0 67.5 94% NA NA 30.21 M
7:50 pm EDT N 0.0 10.00 Overcast -- 70.0 66.2 87% NA NA 30.19 M
6:50 pm EDT N 0.0 10.00 Overcast -- 72.0 64.2 78% NA NA 30.19 M
5:50 pm EDT N 0.0 10.00 Overcast -- 72.0 63.7 75% NA NA 30.17 M
5:30 pm EDT N 0.0 10.00 Overcast -- 72.0 63.3 74% NA NA 30.17 M
4:50 pm EDT E 4.6 10.00 Overcast -- 73.0 63.9 74% NA NA 30.16 M
3:50 pm EDT E 3.5 10.00 Overcast -- 73.0 63.7 73% NA NA 30.16 M
2:50 pm EDT NE 3.5 10.00 Overcast -- 73.0 63.3 73% NA NA 30.17 M
1:50 pm EDT E 3.5 10.00 Overcast -- 71.0 63.5 78% NA NA 30.20 M
12:50 pm EDT NE 4.6 10.00 Overcast -- 70.0 65.5 86% NA NA 30.20 M
11:50 am EDT N 3.5 10.00 Overcast -- 68.0 67.6 98% NA NA 30.21 M
10:50 am EDT N 0.0 10.00 Overcast -- 67.0 66.6 98% NA NA 30.20 M
9:50 am EDT N 4.6 5.00 Fog/Mist -- 66.0 65.1 98% NA NA 30.20 M
9:30 am EDT N 0.0 7.00 Overcast -- 65.0 64.8 98% NA NA 30.20 M
8:50 am EDT N 0.0 7.00 Overcast -- 65.0 64.4 98% NA NA 30.19 M
7:50 am EDT N 0.0 10.00 Overcast -- 64.0 63.1 98% NA NA 30.17 M
7:30 am EDT N 0.0 10.00 Overcast -- 64.0 63.5 98% NA NA 30.16 M
6:50 am EDT N 0.0 10.00 Overcast -- 64.0 63.5 98% NA NA 30.15 M
6:30 am EDT NW 3.5 10.00 Overcast -- 64.0 63.0 98% NA NA 30.14 M

Regional Weather Observation


Bedford, Bedford County Airport, PA (KHMZ)

Mostly Cloudy
65.0 F

Altoona - Blair County Airport, PA (KAOO)

Overcast
70.0 F

Somerset County Airport, PA (K2G9)

Mostly Cloudy
63.0 F

Indiana / Stewart Field, PA (KIDI)

NULL
66.0 F

Latrobe / Westmoreland, PA (KLBE)

Fair
70.0 F

Cumberland, Greater Cumberland Regional Airport, WV (KCBE)

Fog/Mist
67.0 F
Advertise Here


Advertise Here